Torna al catalogo

COSMOS 2251 DEB

AttivoVLEO
NORAD 33811·DEBRIS·🇷🇺 Russia

Lanciato Jun 16, 1993 da Plesetsk Cosmodrome

Loading…

Prossimi Passaggi (prossime 24 ore)

TLE

AggiornatoSource: Space-Track

Epoca: Sep 14, 2026, 12:15 UTC

1 33811U 93036BC  26257.51090551  .00019264  00000-0  97380-3 0  9997
2 33811  73.8247  85.3010 0029012 116.1283 268.7447 15.16643447941847

Traccia COSMOS 2251 DEB in tempo reale con AllMySat

Download on the App Store